Location: Albany
(35.0170°S, 117.8920°E)
Time: 16:52:23
(UTC+08:00)

Transit 2A - Pass Details

Date: 25 January 2021
Orbit: 601 x 958 km, 66.7° (Epoch: 02 March)

Event Time Altitude Azimuth Distance (km) Brightness Sun altitude
Rises 02:48:13 0° 232° (SW) 3,610 9.5 -25.6°
Enters shadow 02:50:49 - 246° (WSW) 2,981 8.9 -25.3°
Reaches altitude 10° 02:52:31 10° 259° (W) 2,691 - -25.1°
Maximum altitude 02:54:53 12° 282° (WNW) 2,528 - -24.7°
Drops below altitude 10° 02:57:17 10° 304° (NW) 2,692 - -24.4°
Sets 03:01:36 0° 332° (NNW) 3,611 - -23.8°
